{"data":{"norad_id":60584,"intl_designator":"2024-150B","name":"STARLINK-32204","alt_names":[],"object_type":"PAYLOAD","status":"ACTIVE","operator":null,"country":"US","launch_date":"2024-08-20","launch_site_code":"AFETR","launch_vehicle":null,"mission":null,"orbit_class":"UNKNOWN","rcs_meters":null,"size_class":null,"mass_kg":null,"dimensions":null,"purposes":["comms"],"wikipedia_slug":null,"has_3d_model":false,"image_url":null,"decayed_at":null,"tle_current":{"epoch":"2026-05-25T04:34:28.303104Z","epoch_age_seconds":52497,"freshness":"FRESH","line1":"1 60584U 24150B   26145.19060536  .00002870  00000+0  96048-4 0  9990","line2":"2 60584  53.1621 311.0069 0001315  87.6780 272.4373 15.34395932 99762","mean_motion":15.34395932,"eccentricity":0.0001315,"inclination_deg":53.1621,"raan_deg":311.0069,"arg_perigee_deg":87.678,"mean_anomaly_deg":272.4373,"bstar":9.6048e-5,"rev_number":9976,"period_min":93.848006891092,"perigee_km":461.81575910556,"apogee_km":463.61490326866,"semimajor_km":6840.8523311871,"source":"CELESTRAK","updated_at":"2026-05-25T13:38:19.278116Z"}}}